Flag for Kazakhstan Weather past 2 weeks in Astana, Kazakhstan

30 °F

Passing clouds.

Feels Like: 24 °F
Forecast: 34 / 67 °F
Wind: 6 mph from East

Location: Astana

Current Time: Oct 8, 2015 at 3:28:12 AM

Latest Report: Oct 8, 2015 at 3:00 AM

Visibility: N/A

Pressure: 29.86 "Hg

Humidity: 69%

Dew point: 21 °F

Location of AstanaLocation

Historic Weather in Astana — Graph


Astana temperature yesterday

Maximum temperature yesterday: 63 °F (at 4:00 PM)
Minimum temperature yesterday: 25 °F (at 7:30 AM)
Average temperature yesterday: 43 °F

Past Weeks' High & Low Weather Summary

High73 °F (Sep 30, 4:00 PM)100% (Sep 25, 7:30 AM)30.63 "Hg (Sep 25, 7:30 AM)
Low21 °F (Sep 28, 6:00 AM)13% (Oct 2, 2:00 PM)29.18 "Hg (Oct 4, 4:30 AM)
Average45 °F55%30.14 "Hg
* Reported Sep 23 2:00 AM — Oct 8 2:00 AM, Astana, Weather by CustomWeather, © 2015

Note: Actual official high and low records may vary slightly from our data, if they occured in-between our weather recording intervals... More about our weather records


Astana weather history for previous 24 hours

Time TempWeatherWind HumidityBarometerVisibility
2:00 AM
Thu, Oct 8
30 °FPassing clouds.6 mph69%29.86 "HgN/A
1:30 AM32 °FClear.1 mph69%29.89 "Hg10 mi
1:00 AM32 °FClear.3 mph69%29.89 "Hg10 mi
12:30 AM32 °FClear.3 mph64%29.89 "Hg10 mi
12:00 AM32 °FClear.3 mph69%29.89 "Hg10 mi
11:30 PM
Wed, Oct 7
34 °FClear.6 mph70%29.92 "Hg10 mi
11:00 PM36 °FPassing clouds.3 mph70%29.92 "HgN/A
10:30 PM37 °FClear.1 mph60%29.92 "Hg10 mi
10:00 PM43 °FClear.1 mph66%29.92 "Hg10 mi
9:30 PM45 °FClear.1 mph53%29.92 "Hg10 mi
9:00 PM43 °FPassing clouds.3 mph61%29.92 "HgN/A
8:30 PM46 °FPassing clouds.3 mph43%29.95 "HgN/A
8:00 PM46 °FPassing clouds.3 mph43%29.95 "HgN/A
7:30 PM52 °FSunny.1 mph35%29.95 "Hg10 mi
7:00 PM52 °FSunny.No wind30%29.95 "Hg10 mi
6:30 PM55 °FSunny.6 mph24%29.95 "Hg10 mi
6:00 PM57 °FSunny.6 mph25%29.95 "Hg10 mi
5:30 PM59 °FSunny.6 mph23%29.95 "Hg10 mi
5:00 PM61 °FSunny.6 mph19%29.95 "Hg10 mi
4:30 PM61 °FSunny.8 mph16%29.98 "Hg10 mi
4:00 PM63 °FSunny.8 mph14%29.98 "Hg10 mi
3:30 PM61 °FSunny.8 mph15%29.98 "Hg10 mi
3:00 PM61 °FSunny.8 mph16%29.98 "Hg10 mi
2:30 PM61 °FSunny.8 mph16%30.01 "Hg10 mi
2:00 PM59 °FSunny.8 mph18%30.01 "Hg10 mi
1:30 PM57 °FSunny.8 mph20%30.01 "Hg10 mi
1:00 PM57 °FSunny.8 mph21%30.04 "Hg10 mi
12:30 PM55 °FSunny.10 mph24%30.04 "Hg10 mi
12:00 PM54 °FSunny.10 mph28%30.07 "Hg10 mi
11:30 AM54 °FSunny.10 mph26%30.07 "Hg10 mi
11:00 AM50 °FSunny.10 mph32%30.09 "Hg10 mi
10:30 AM48 °FSunny.10 mph34%30.09 "Hg10 mi
10:00 AM45 °FSunny.8 mph39%30.09 "Hg10 mi
9:30 AM41 °FSunny.10 mph45%30.09 "Hg10 mi
8:30 AM34 °FSunny.6 mph60%30.09 "Hg10 mi
8:00 AM30 °FClear.8 mph64%30.09 "Hg10 mi
7:30 AM25 °FClear.6 mph80%30.09 "Hg10 mi
7:00 AM27 °FClear.6 mph69%30.09 "Hg10 mi
6:30 AM27 °FClear.6 mph64%30.12 "Hg10 mi
6:00 AM27 °FClear.6 mph69%30.12 "Hg10 mi
5:30 AM28 °FClear.8 mph64%30.12 "Hg10 mi
5:00 AM30 °FPassing clouds.6 mph59%30.12 "HgN/A
4:30 AM30 °FClear.6 mph75%30.12 "Hg10 mi
4:00 AM28 °FClear.3 mph64%30.12 "Hg10 mi
3:30 AM27 °FClear.6 mph64%30.12 "Hg10 mi
3:00 AM27 °FClear.6 mph64%30.12 "Hg10 mi
Weather by CustomWeather, © 2015

See weather overviewHow to use our weather pages